Flag Weather past 2 weeks in Long Beach, California, U.S.A.

Now
61 °F

Passing clouds.


Feels Like: 61 °F
Forecast: 59 / 64 °F
Wind: 8 mph from West

Location: Long Beach Airport

Current Time: Nov 1, 2014 at 3:33:16 AM

Latest Report: Nov 1, 2014 at 2:53 AM


Visibility: 10 mi

Pressure: 29.85 "Hg

Humidity: 87%

Dew point: 57 °F

Location of Long BeachLocation

Historic Weather in Long Beach — Graph

°F

Long Beach temperature yesterday

Maximum temperature yesterday: 70 °F (at 12:53 PM)
Minimum temperature yesterday: 60 °F (at 1:53 AM)
Average temperature yesterday: 65 °F

Past Weeks' High & Low Weather Summary

 TemperatureHumidityPressure
High86 °F (Oct 29, 1:53 PM)94% (Oct 25, 4:53 AM)30.05 "Hg (Oct 25, 4:53 AM)
Low59 °F (Oct 22, 6:53 AM)22% (Oct 24, 3:53 PM)29.83 "Hg (Oct 18, 4:53 PM)
Average68 °F73%29.93 "Hg
* Reported Oct 17 1:53 AM — Nov 1 1:53 AM, Long Beach, Weather by CustomWeather, © 2014

Note: Actual official high and low records may vary slightly from our data, if they occured in-between our weather recording intervals... More about our weather records

Advertising

Long Beach weather history for previous 24 hours

 ConditionsComfort  
Time TempWeatherWind HumidityBarometerVisibility
1:53 AM
Nov 1
61 °FLight rain. Overcast.3 mph93%29.85 "Hg10 mi
12:53 AM61 °FLight rain. Fog.8 mph93%29.84 "Hg5 mi
11:53 PM
Oct 31
66 °FOvercast.9 mph70%29.83 "Hg10 mi
10:53 PM65 °FClear.7 mph73%29.84 "Hg10 mi
9:53 PM66 °FMostly cloudy.10 mph70%29.86 "Hg10 mi
8:53 PM66 °FLight rain. Mostly cloudy.6 mph75%29.85 "Hg10 mi
7:53 PM67 °FOvercast.5 mph71%29.84 "Hg10 mi
6:53 PM67 °FOvercast.6 mph73%29.85 "Hg10 mi
5:53 PM68 °FOvercast.7 mph73%29.85 "Hg10 mi
4:53 PM68 °FOvercast.3 mph73%29.85 "Hg10 mi
3:53 PM69 °FOvercast.8 mph66%29.87 "Hg10 mi
2:53 PM70 °FMore clouds than sun.6 mph57%29.88 "Hg10 mi
1:53 PM70 °FMore clouds than sun.No wind61%29.88 "Hg10 mi
12:53 PM70 °FMore clouds than sun.No wind68%29.92 "Hg10 mi
12:04 PM69 °FMore clouds than sun.5 mph68%29.94 "Hg10 mi
10:53 AM69 °FMore clouds than sun.3 mph70%29.96 "Hg6 mi
9:53 AM68 °FOvercast.No wind76%29.97 "Hg8 mi
8:53 AM64 °FOvercast.No wind84%29.97 "Hg6 mi
7:53 AM61 °FPassing clouds.No wind90%29.96 "Hg7 mi
6:53 AM61 °FPartly cloudy.3 mph90%29.95 "Hg10 mi
5:53 AM61 °FMostly cloudy.No wind93%29.95 "Hg9 mi
4:53 AM60 °FPassing clouds.3 mph93%29.94 "Hg7 mi
3:53 AM62 °FOvercast.No wind90%29.95 "Hg9 mi
Weather by CustomWeather, © 2014

See weather overviewHow to use our weather pages